Погода в Горном Зерентуе

Россия / Забайкальский край     51°12′47″N   119°31′15″E
темп.,
°C
ветер,
м/с
пор.,
м/с
влажн.,
%
обл.,
%
осадки,
мм/ч
давл.,
гПа
погр.,
м
27 января, чт
чт2700:00−29зсз1110096 0.0 10389
03:00−30сз1110093 0.0 10399
06:00−31сз1110098 0.0 10389
09:00−32з1110099 0.0 10399
12:00−24ю119991 0.0 103772
15:00−21ююз11949 0.0 103489
18:00−28юз1110064 0.0 10379
21:00−30з1110052 0.0 10379
28 января, пт
пт2800:00−31зсз1110076 0.0 10379
03:00−32зсз1110081 0.0 10389
06:00−32зсз1110099 0.0 10379
09:00−32сз111007 0.0 10389
12:00−23зюз11935 0.0 103472
15:00−18ю21905 0.0 103166
18:00−26зюз211005 0.0 10339
21:00−29з119930 0.0 10339
29 января, сб
сб2900:00−30зсз11996 0.0 10339
03:00−28сз1198100 0.0 103210
06:00−27сз1196100 0.0 10319
09:00−29сз11975 0.0 10329
12:00−20з11865 0.0 102966
15:00−16ююз11875 0.0 102647
18:00−24зюз11995 0.0 10289
21:00−26зсз21986 0.0 10309
30 января, вс
вс3000:00−28сз21996 0.0 10329
03:00−29ссз11995 0.0 10339
06:00−30сз11995 0.0 10339
09:00−31ссз11985 0.0 10359
12:00−20зсз01863 0.0 103161
15:00−16ююв10875 0.0 102939
18:00−23зсз11975 0.0 10319
21:00−27сз21986 0.0 10349
31 января, пн
пн3100:00−29сз111006 0.0 10359
03:00−31сз1110033 0.0 10369
06:00−32сз111009 0.0 10369
09:00−32сз1110012 0.0 10379
12:00−23ю11925 0.0 103460
15:00−19ю11885 0.0 103172
18:00−27юз11975 0.0 10349
21:00−30з111008 0.0 10369